Regional Weather Roundup
Issued by NWS Huntsville, AL

Current Version | Previous Version | Text Only | Print | Product List | Glossary On
Versions: 1 2 3 4 5 6 7 8 9 10 11 12 13 14 15 16 17 18 19 20 21 22 23 24 25 26 27 28 29 30 31 32 33 34 35 36 37 38 39 40 41 42 43 44 45 46 47 48 49 50
791
ASUS44 KHUN 200210
RWRHUN

WEATHER ROUNDUP FOR THE TENNESSEE VALLEY
NATIONAL WEATHER SERVICE HUNTSVILLE AL
800 PM CST THU JAN 19 2017

ALZ001>004-200300-
NORTHWEST ALABAMA

CITY           SKY/WX    TMP DP  RH WIND       PRES   REMARKS
COURTLAND HCN    N/A     63 N/A N/A S8          N/A
RUSSELLVILLE     N/A     63 N/A N/A MISG        N/A
SHOALS AIRPORT LGT RAIN  60  57  89 NW7       29.75F
SHOALS TVA RES   N/A     59 N/A N/A MISG        N/A
$$

ALZ005>007-016-200300-
NORTH CENTRAL ALABAMA

CITY           SKY/WX    TMP DP  RH WIND       PRES   REMARKS
CULLMAN AG STN   N/A     61 N/A N/A S5          N/A
DECATUR AP     LGT RAIN  62  62 100 S14       29.76F
HUNTSVILLE AP  LGT RAIN  63  61  93 S14       29.76S FOG
MERIDIANVILLE  LGT RAIN  61  59  94 SE7       29.77S
REDSTONE ARSN  LGT RAIN  61  60  97 S9        29.75F
VINEMONT AP    RAIN      61  60  97 S9        29.79F
$$

ALZ008>010-200300-
NORTHEAST ALABAMA

CITY           SKY/WX    TMP DP  RH WIND       PRES   REMARKS
ALBERTVILLE    LGT RAIN  61  61 100 SE5       29.80F
FORT PAYNE     HVY RAIN  57  54  88 CALM      29.82F
SCOTTSBORO AP  LGT RAIN  61  61 100 SE6       29.82S
SCOTTSBORO HCN   N/A     61 N/A N/A MISG        N/A
VALLEY HEAD      N/A     55 N/A N/A MISG        N/A
$$

TNZ076-096-097-200300-
SOUTHEASTERN MIDDLE TENNESSEE

CITY           SKY/WX    TMP DP  RH WIND       PRES   REMARKS
TULLAHOMA      MOCLDY    57  57 100 SE14      29.76F
WINCHESTER     CLOUDY    59  57  94 SE8       29.78F
$$

...SURROUNDING SITES...

CITY           SKY/WX    TMP DP  RH WIND       PRES   REMARKS
ATLANTA        CLOUDY    65  49  56 E8        29.88F
ANNISTON       RAIN      64  62  93 S5        29.85S FOG
BIRMINGHAM     CLOUDY    63  62  97 SE6       29.82F
CHATTANOOGA    RAIN      52  50  93 W3        29.88R FOG
CORINTH        LGT RAIN  59  57  94 S7        29.75R
DALTON         CLOUDY    63  46  55 SE12G17   29.83S
GADSDEN        RAIN      61  61 100 SE3       29.82F
GOLDEN TRNGL   DRIZZLE   63  57  82 CALM      29.71F FOG
HALEYVILLE     LGT RAIN  61  60  97 S13       29.78F
JACKSON TN     LGT RAIN  60  58  92 S9        29.72F
MEMPHIS        CLOUDY    58  58 100 SW5       29.72R
NASHVILLE      RAIN      60  58  92 W7        29.71F FOG
OXFORD MS      FAIR      55  55 100 SE5       29.74S FOG
ROME           LGT RAIN  62  45  53 SE8       29.83S
SAVANNAH       MOCLDY    59  59 100 CALM      29.74R
TUPELO         CLOUDY    58  56  93 E8        29.72F
TUSCALOOSA     CLOUDY    63  62  97 SE8       29.77F
$$

...GULF COAST WEATHER...

CITY           SKY/WX    TMP DP  RH WIND       PRES   REMARKS
GULFPORT       CLOUDY    66  66 100 S6        29.82S
PASCAGOULA     LGT RAIN  66  63  90 S6        29.82F
MOBILE         LGT RAIN  64  62  93 S6        29.85F
GULF SHORES    LGT RAIN  65  65 100 SW3       29.87R
PENSACOLA      TSTM      70  68  93 S13       29.85F FOG
DESTIN         LGT RAIN  74  70  87 S9G20     29.88
PANAMA CITY    DRIZZLE   70  67  89 SE12      29.90F
APPALACHICOLA  CLOUDY    67  67 100 S5        29.93R
$$





USA.gov is the U.S. government's official web portal to all federal, state and local government web resources and services.